Flag for Belarus Weather past 2 weeks in Gomel, Belarus

Now
36 °F

Clear.


Feels Like: 28 °F
Forecast: 31 / 39 °F
Wind: 10 mph from Southeast

Location: Gomel'

Current Time: Feb 27, 2015 at 2:47:02 AM

Latest Report: Feb 27, 2015 at 2:00 AM


Visibility: 10 mi

Pressure: 30.15 "Hg

Humidity: 81%

Dew point: 30 °F

Location of GomelLocation

Historic Weather in Gomel — Graph

°F

Gomel temperature yesterday

Maximum temperature yesterday: 43 °F (at 3:00 PM)
Minimum temperature yesterday: 28 °F (at 4:30 AM)
Average temperature yesterday: 35 °F

Past Weeks' High & Low Weather Summary

 TemperatureHumidityPressure
High46 °F (Feb 24, 3:30 PM)100% (Feb 12, 6:00 AM)30.83 "Hg (Feb 12, 6:00 AM)
Low7 °F (Feb 17, 8:00 AM)40% (Feb 17, 4:00 PM)29.89 "Hg (Feb 22, 12:00 AM)
Average31 °F82%30.24 "Hg
* Reported Feb 12 1:00 AM — Feb 27 1:00 AM, Gomel, Weather by CustomWeather, © 2015

Note: Actual official high and low records may vary slightly from our data, if they occured in-between our weather recording intervals... More about our weather records

Advertising

Gomel weather history for previous 24 hours

 ConditionsComfort  
Time TempWeatherWind HumidityBarometerVisibility
1:00 AM
Fri, Feb 27
36 °FMostly cloudy.10 mph87%30.15 "HgN/A
12:00 AM37 °FOvercast.6 mph87%30.15 "HgN/A
11:00 PM
Thu, Feb 26
37 °FMostly cloudy.6 mph81%30.15 "HgN/A
10:00 PM37 °FMostly cloudy.3 mph81%30.15 "HgN/A
9:00 PM37 °FClear.3 mph75%30.18 "Hg10 mi
8:00 PM39 °FClear.3 mph75%30.18 "Hg10 mi
7:30 PM41 °FClear.3 mph66%30.18 "Hg10 mi
7:00 PM41 °FSunny.3 mph66%30.18 "Hg10 mi
6:30 PM43 °FSunny.3 mph61%30.18 "Hg10 mi
6:00 PM43 °FSunny.3 mph61%30.18 "Hg10 mi
5:30 PM43 °FSunny.1 mph61%30.18 "Hg10 mi
5:00 PM43 °FSunny.1 mph61%30.18 "Hg10 mi
4:30 PM43 °FSunny.3 mph61%30.18 "Hg10 mi
4:00 PM43 °FSunny.3 mph61%30.18 "Hg10 mi
3:30 PM43 °FSunny.1 mph71%30.18 "Hg10 mi
3:00 PM43 °FSunny.1 mph71%30.18 "Hg10 mi
2:30 PM41 °FSunny.3 mph81%30.18 "Hg10 mi
2:00 PM41 °FSunny.3 mph81%30.18 "Hg10 mi
1:30 PM39 °FSunny.3 mph81%30.18 "Hg10 mi
1:00 PM39 °FSunny.1 mph81%30.21 "Hg10 mi
12:30 PM37 °FSunny.1 mph81%30.21 "Hg10 mi
12:00 PM37 °FSunny.1 mph81%30.21 "Hg10 mi
11:30 AM32 °FSunny.1 mph80%30.21 "Hg10 mi
11:00 AM32 °FSunny.3 mph80%30.21 "Hg10 mi
10:30 AM30 °FSunny.3 mph86%30.21 "Hg10 mi
10:00 AM30 °FSunny.3 mph86%30.21 "Hg10 mi
9:30 AM30 °FSunny.3 mph80%30.21 "Hg10 mi
8:30 AM28 °FClear.3 mph86%30.18 "Hg10 mi
8:00 AM28 °FPassing clouds.6 mph86%30.18 "HgN/A
7:30 AM28 °FPartly cloudy.3 mph93%30.18 "HgN/A
6:00 AM28 °FClear.3 mph93%30.18 "Hg10 mi
5:00 AM28 °FClear.3 mph93%30.15 "Hg10 mi
4:30 AM28 °FClear.N/A86%30.15 "Hg10 mi
3:30 AM30 °FClear.3 mph86%30.15 "Hg10 mi
3:00 AM30 °FClear.3 mph86%30.15 "Hg10 mi
2:30 AM30 °FClear.3 mph86%30.15 "Hg10 mi
2:00 AM30 °FClear.3 mph86%30.15 "Hg10 mi
Weather by CustomWeather, © 2015

See weather overviewHow to use our weather pages